This is the latest recevied weather packets stored in our database for station/object K5FEP. If no packets are shown the sender has not sent any weather packets the latest 10 day(s).
| Time | Temp. | Humidity | Pressure | Rain* | Wind** | Luminosity | Snow |
|---|---|---|---|---|---|---|---|
| 1777957518 | 17.78° C | 48% | 1013 hPa | 0 mm | - | 0 W/m² | - |
| 1777957216 | 17.78° C | 47% | 1013.4 hPa | 0 mm | - | 0 W/m² | - |
| 1777956911 | 17.78° C | 48% | 1012.9 hPa | 0 mm | - | 0 W/m² | - |
| 1777956609 | 17.78° C | 48% | 1013 hPa | 0 mm | - | 0 W/m² | - |
| 1777956306 | 17.78° C | 48% | 1013 hPa | 0 mm | - | 0 W/m² | - |
| 1777956002 | 17.78° C | 47% | 1013.4 hPa | 0 mm | - | 0 W/m² | - |
| 1777955698 | 17.78° C | 47% | 1013 hPa | 0 mm | - | 0 W/m² | - |
| 1777955395 | 17.78° C | 47% | 1013 hPa | 0 mm | - | 0 W/m² | - |
| 1777955091 | 18.33° C | 46% | 1013.1 hPa | 0 mm | - | 0 W/m² | - |
| 1777954789 | 18.33° C | 45% | 1013 hPa | 0 mm | - | 0 W/m² | - |
| 1777954485 | 18.33° C | 45% | 1013 hPa | 0 mm | - | 0 W/m² | - |
| 1777954183 | 17.78° C | 46% | 1012.9 hPa | 0 mm | - | 0 W/m² | - |
| 1777953880 | 17.78° C | 46% | 1012.9 hPa | 0 mm | - | 0 W/m² | - |
| 1777953577 | 17.78° C | 47% | 1012.7 hPa | 0 mm | - | 0 W/m² | - |
| 1777953273 | 17.22° C | 48% | 1012.7 hPa | 0 mm | - | 0 W/m² | - |
| 1777952970 | 17.22° C | 48% | 1012.9 hPa | 0 mm | - | 0 W/m² | - |
| 1777952666 | 16.67° C | 50% | 1012.6 hPa | 0 mm | - | 0 W/m² | - |
| 1777952364 | 16.67° C | 50% | 1012.9 hPa | 0 mm | - | 0 W/m² | - |
| 1777952060 | 16.11° C | 52% | 1012.7 hPa | 0 mm | - | 0 W/m² | - |
| 1777951759 | 16.11° C | 53% | 1012.7 hPa | 0 mm | - | 0 W/m² | - |
| 1777951455 | 16.11° C | 54% | 1012.6 hPa | 0 mm | - | 0 W/m² | - |
| 1777951152 | 15.56° C | 56% | 1012.8 hPa | 0 mm | - | 0 W/m² | - |
| 1777950849 | 16.11° C | 55% | 1012.8 hPa | 0 mm | - | 0 W/m² | - |
| 1777950546 | 16.11° C | 55% | 1012.8 hPa | 0 mm | - | 0 W/m² | - |
| 1777950242 | 16.11° C | 55% | 1012.8 hPa | 0 mm | - | 0 W/m² | - |
* Rain latest hour (hover to see other rain measurements)
** Current wind speed in m/s (hover to see current wind gust speed)